STARLINK-6170, 57129

Orbit data source: Space-Track

STARLINK-6170, 57129 is a payload satellite owned by SpaceX/Seattle (US) in LEO that was launched on Fri, 23 Jun 2023 UTC via an FALCON 9 launch vehicle from the Air Force Eastern Test Range (AFETR). Payload-class satellites include a variety of spacecraft equipped with specific instruments for various scientific and technological missions. These include communications satellites like Starlink; space stations such as the ISS; scientific satellites like the Hubble; Earth observation satellites from companies like Planet Labs, Umbra, and HawkEye 360; GPS; miniature CubeSats for education and research; and military/defense satellites.

Loading next visibility...
Identifier
57129, 2023-090AE
Orbit
LEO
Country
Flag of USUS
Related business
Manufacturer
SpaceX/Seattle
Mission
Operational Commercial Communications
Bus & Motor
STARLINK, Unknown motor
Mass
305 kg wet, ~290 kg dry
Launch date (UTC)
2023-06-23 (3 years ago)
Launch vehicle
FALCON 9
Launch site
Air Force Eastern Test Range (AFETR)
Object type
Payload
Rocket body
Debris
Shape & HBR
Box + 1 Pan, 10.1 m
Radar Cross Section
11.087 m², Large (>1 m²)

Expand to show TLE details & history
Last TLE update: 2 days ago

TLE from 2 days ago
0 STARLINK-6170
1 57129U 23090AE  26170.99250233 -.00000027  00000-0  85355-5 0  9998
2 57129  43.0037  46.0767 0001526 266.5409  93.5269 15.27575942165990
Epoch: 2026-06-19T23:49Z
TLE epoch observation values (Epoch: 2026-06-19T23:49:12.201Z)
Latitude
0.00005°
Longitude
140.56239°
Altitude
482.902 km
Speed
7.626 km/s
True Right ascension
03h 04m 18s
True Declination
0° 00' 00"
Sunlit
Object was in daylight at epoch
Visualization orbit readout
Latitude
Unknown
Longitude
Unknown
Altitude
Unknown
Speed
Unknown
Apparent Right ascension
Unknown
Apparent Declination
Unknown
Sunlit
N/A
Visualization observer readout
Local Sidereal Time
21:35:19
Azimuth
Unknown
Elevation
Unknown
Doppler factor
Unknown
Orbital elements
Apogee altitude
486.053 km
Perigee altitude
483.958 km
Semi-major axis
6,863.143 km
Eccentricity
0.00015
Inclination
43.0037°
RAAN
46.0767°
Arg. of periapsis
266.5409°
True anomaly
93.54435°
Mean anomaly
93.5269°
Eccentric anomaly
93.53563°
Mean motion
3.81732 °/min
Orbital period
94.31 mins
BSTAR
0.0000085355
Loading maneuver chart data...
Computing Atmospheric mass density...
Loading historical data...
Loading historical data...
Loading historical data...
Loading historical data...
Loading historical data...
Loading historical data...
Loading historical data...

Documentation

Showing up to 5 results
|